ONEWEB-0266 (48984 NORAD) Tracking and Keplerian Element Data

This shows tracking and keplerian element data for the satellite.

Feedback or suggestion? Click here.




ElementValue
Catalog48984
NameONEWEB-0266
Epoch Orbit362
Epoch Day210.91668981
Epoch Year2021
RAAN227.5319
Inclination87.4437
Eccentricity0.0011634
Argument of Perigee160.2662
Mean Anonmoly93.4761
Mean Motion14.96643254
Decay Rate-0.01357274
L11 48984U 21060T 21210.91668981 -.01357274 00000-0 -12956+0 0 9999
L22 48984 87.4437 227.5319 0011634 160.2662 93.4761 14.96643254 3620

Live tracking and technical data element details for ONEWEB-0266 (NORAD 48984). ONEWEB-0266 can be tracked NOW for your location showing map with azimuth and elevation plus other details from your city location.

Track the satellite on the map from your city or location and see movement details for azimuth, elevation, latitude, longitude, range, height, and movement on the map or in text.







IsCatalogInMostPopularTable: catalog: 48984, numindb: 4
Update: records affected: 1



GetName: 48984 ONEWEB-0266

Hit Count: updated at: Sat, 31 Jul 2021 14:47:57 GMT